Location: Olsztyn
(53.7833°N, 53.7833°E)
Time: 02:38:43
(UTC+02:00)

ISS - Visible Passes

Search period start: 23 September 2018 00:00
Search period end: 03 October 2018 00:00
Orbit: 403 x 408 km, 51.6° (Epoch: 23 September)

Date Brightness Start Highest point End Pass type
(mag) Time Alt. Az. Time Alt. Az. Time Alt. Az.
23 Sep -1.8 18:05:39 10° SSW 18:06:56 16° S 18:06:56 16° S visible
24 Sep -1.8 17:14:43 10° S 17:16:29 14° SE 17:17:31 12° ESE visible
24 Sep -1.5 18:49:15 10° SW 18:50:12 17° SW 18:50:12 17° SW visible
25 Sep -2.9 17:57:38 10° SW 18:00:35 31° SSE 18:00:37 31° SSE visible
26 Sep -2.3 17:06:11 10° SSW 17:08:51 22° SSE 17:10:54 13° ESE visible
26 Sep -2.3 18:41:42 10° WSW 18:43:35 29° SW 18:43:35 29° SW visible
27 Sep -3.4 17:49:55 10° WSW 17:53:05 44° SSE 17:53:45 38° SE visible
27 Sep -0.7 19:26:07 10° W 19:26:26 12° W 19:26:26 12° W visible
28 Sep -2.9 16:58:13 10° SW 17:01:15 34° SSE 17:03:51 13° E visible
28 Sep -2.7 18:34:13 10° WSW 18:36:32 39° WSW 18:36:32 39° WSW visible
29 Sep -3.6 17:42:20 10° WSW 17:45:35 56° S 17:46:34 37° ESE visible
29 Sep -0.8 19:18:41 10° W 19:19:14 14° W 19:19:14 14° W visible
30 Sep -3.3 16:50:30 10° WSW 16:53:41 47° SSE 16:56:34 12° E visible
30 Sep -2.9 18:26:44 10° W 18:29:14 43° WSW 18:29:14 43° WSW visible
01 Oct -3.7 17:34:48 10° W 17:38:04 60° S 17:39:13 35° ESE visible
01 Oct -0.9 19:11:14 10° W 19:11:53 14° W 19:11:53 14° W visible
02 Oct -3.5 16:42:52 10° WSW 16:46:08 58° S 16:49:10 11° E visible
02 Oct -2.8 18:19:14 10° W 18:21:50 40° SW 18:21:50 40° SW visible
